Tuolumne River Below Confluence with Cherry Creek [ USA-CAL ]

Edit Gauge

Current Conditions

Reading of "n/a" = frozen gauge or gauge error.
Reading Trend Type Updated
482 cfs -40 cfs/hr Flow 00h56m

Station Description

AW Gauge ID: 43519
Source: virtual
Station: 10553
Enabled yes
Description:Combination of Cherry Creek below Holm Powerhouse and flow in Tuolumne below Early Intake diversion dam.
Calculation:$flow=(0.000000)+(1.000000*($gauge[4651]->getValue(GMETRIC_FLOW,0)))+(1.000000*($gauge[4655]->getValue(GMETRIC_FLOW,0)));
Data is courtesy of AW's Stream Team program. This data is calculated based on other gauges and information provided by the Stream Team. This data, and any river data, should be used with caution.

Information

Flow

Gauge History

Times listed in GMT 24h, ET and PT hours provided for convenience Graphs in GMT. Readings of "n/a" constitute a frozen gauge or gauge error.
Reading Updated (GMT) Eastern Pacific Comment
481.70 02/21/2018 06:41:04 Feb 21 01:41 am Feb 20 10:41 pm
491.70 02/21/2018 06:26:08 Feb 21 01:26 am Feb 20 10:26 pm
491.70 02/21/2018 05:41:20 Feb 21 12:41 am Feb 20 9:41 pm
491.70 02/21/2018 05:26:24 Feb 21 12:26 am Feb 20 9:26 pm
491.70 02/21/2018 04:41:36 Feb 20 11:41 pm Feb 20 8:41 pm
486.70 02/21/2018 04:26:40 Feb 20 11:26 pm Feb 20 8:26 pm
486.70 02/21/2018 03:41:52 Feb 20 10:41 pm Feb 20 7:41 pm
486.70 02/21/2018 03:26:56 Feb 20 10:26 pm Feb 20 7:26 pm
486.70 02/21/2018 02:42:08 Feb 20 09:42 pm Feb 20 6:42 pm
491.70 02/21/2018 02:27:12 Feb 20 09:27 pm Feb 20 6:27 pm
491.70 02/21/2018 01:42:24 Feb 20 08:42 pm Feb 20 5:42 pm
481.70 02/21/2018 01:27:28 Feb 20 08:27 pm Feb 20 5:27 pm
481.70 02/21/2018 00:42:40 Feb 20 07:42 pm Feb 20 4:42 pm
481.70 02/21/2018 00:27:44 Feb 20 07:27 pm Feb 20 4:27 pm
486.70 02/20/2018 23:40:48 Feb 20 06:40 pm Feb 20 3:40 pm
481.70 02/20/2018 23:25:52 Feb 20 06:25 pm Feb 20 3:25 pm
481.70 02/20/2018 22:41:04 Feb 20 05:41 pm Feb 20 2:41 pm
482.50 02/20/2018 22:26:08 Feb 20 05:26 pm Feb 20 2:26 pm
482.50 02/20/2018 21:41:20 Feb 20 04:41 pm Feb 20 1:41 pm
482.50 02/20/2018 21:26:24 Feb 20 04:26 pm Feb 20 1:26 pm
487.50 02/20/2018 20:41:36 Feb 20 03:41 pm Feb 20 12:41 pm
487.50 02/20/2018 20:26:40 Feb 20 03:26 pm Feb 20 12:26 pm
487.50 02/20/2018 19:41:52 Feb 20 02:41 pm Feb 20 11:41 am
492.50 02/20/2018 19:26:56 Feb 20 02:26 pm Feb 20 11:26 am
492.50 02/20/2018 18:42:08 Feb 20 01:42 pm Feb 20 10:42 am
486.70 02/20/2018 18:27:12 Feb 20 01:27 pm Feb 20 10:27 am
486.70 02/20/2018 17:42:24 Feb 20 12:42 pm Feb 20 9:42 am
481.70 02/20/2018 17:27:28 Feb 20 12:27 pm Feb 20 9:27 am
481.70 02/20/2018 16:42:40 Feb 20 11:42 am Feb 20 8:42 am
481.70 02/20/2018 16:27:44 Feb 20 11:27 am Feb 20 8:27 am
491.70 02/20/2018 15:40:48 Feb 20 10:40 am Feb 20 7:40 am
481.70 02/20/2018 15:25:52 Feb 20 10:25 am Feb 20 7:25 am
481.70 02/20/2018 14:41:04 Feb 20 09:41 am Feb 20 6:41 am
482.50 02/20/2018 14:26:08 Feb 20 09:26 am Feb 20 6:26 am
482.50 02/20/2018 13:41:20 Feb 20 08:41 am Feb 20 5:41 am
482.50 02/20/2018 13:26:24 Feb 20 08:26 am Feb 20 5:26 am
482.50 02/20/2018 12:41:36 Feb 20 07:41 am Feb 20 4:41 am
477.50 02/20/2018 12:26:40 Feb 20 07:26 am Feb 20 4:26 am
477.50 02/20/2018 11:41:52 Feb 20 06:41 am Feb 20 3:41 am
482.50 02/20/2018 11:26:56 Feb 20 06:26 am Feb 20 3:26 am
482.50 02/20/2018 10:42:08 Feb 20 05:42 am Feb 20 2:42 am
482.50 02/20/2018 10:27:12 Feb 20 05:27 am Feb 20 2:27 am
482.50 02/20/2018 09:42:24 Feb 20 04:42 am Feb 20 1:42 am
482.50 02/20/2018 09:27:28 Feb 20 04:27 am Feb 20 1:27 am
482.50 02/20/2018 08:27:44 Feb 20 03:27 am Feb 20 12:27 am
477.50 02/20/2018 07:40:48 Feb 20 02:40 am Feb 19 11:40 pm
487.50 02/20/2018 07:25:52 Feb 20 02:25 am Feb 19 11:25 pm
487.50 02/20/2018 06:41:04 Feb 20 01:41 am Feb 19 10:41 pm
482.50 02/20/2018 06:26:08 Feb 20 01:26 am Feb 19 10:26 pm
482.50 02/20/2018 05:41:20 Feb 20 12:41 am Feb 19 9:41 pm
482.50 02/20/2018 05:26:24 Feb 20 12:26 am Feb 19 9:26 pm
482.50 02/20/2018 04:41:36 Feb 19 11:41 pm Feb 19 8:41 pm
482.50 02/20/2018 04:26:40 Feb 19 11:26 pm Feb 19 8:26 pm
482.50 02/20/2018 03:41:52 Feb 19 10:41 pm Feb 19 7:41 pm
482.50 02/20/2018 01:42:24 Feb 19 08:42 pm Feb 19 5:42 pm
477.50 02/20/2018 01:27:28 Feb 19 08:27 pm Feb 19 5:27 pm
477.50 02/20/2018 00:42:40 Feb 19 07:42 pm Feb 19 4:42 pm
478.20 02/20/2018 00:27:44 Feb 19 07:27 pm Feb 19 4:27 pm
478.20 02/19/2018 23:40:48 Feb 19 06:40 pm Feb 19 3:40 pm
478.20 02/19/2018 23:25:52 Feb 19 06:25 pm Feb 19 3:25 pm
478.20 02/19/2018 22:41:04 Feb 19 05:41 pm Feb 19 2:41 pm
488.20 02/19/2018 22:26:08 Feb 19 05:26 pm Feb 19 2:26 pm
488.20 02/19/2018 21:41:20 Feb 19 04:41 pm Feb 19 1:41 pm
483.20 02/19/2018 21:26:24 Feb 19 04:26 pm Feb 19 1:26 pm
483.20 02/19/2018 20:41:36 Feb 19 03:41 pm Feb 19 12:41 pm
493.20 02/19/2018 20:26:40 Feb 19 03:26 pm Feb 19 12:26 pm
493.20 02/19/2018 19:41:52 Feb 19 02:41 pm Feb 19 11:41 am
478.90 02/19/2018 19:26:56 Feb 19 02:26 pm Feb 19 11:26 am
478.90 02/19/2018 18:42:08 Feb 19 01:42 pm Feb 19 10:42 am
483.20 02/19/2018 18:27:12 Feb 19 01:27 pm Feb 19 10:27 am
483.20 02/19/2018 17:42:24 Feb 19 12:42 pm Feb 19 9:42 am
483.20 02/19/2018 17:27:28 Feb 19 12:27 pm Feb 19 9:27 am
483.20 02/19/2018 16:42:40 Feb 19 11:42 am Feb 19 8:42 am
483.20 02/19/2018 16:27:44 Feb 19 11:27 am Feb 19 8:27 am
483.20 02/19/2018 15:40:48 Feb 19 10:40 am Feb 19 7:40 am
483.20 02/19/2018 15:25:52 Feb 19 10:25 am Feb 19 7:25 am
483.20 02/19/2018 14:41:04 Feb 19 09:41 am Feb 19 6:41 am
483.20 02/19/2018 14:26:08 Feb 19 09:26 am Feb 19 6:26 am
483.20 02/19/2018 13:41:20 Feb 19 08:41 am Feb 19 5:41 am
487.50 02/19/2018 13:26:24 Feb 19 08:26 am Feb 19 5:26 am
487.50 02/19/2018 12:41:36 Feb 19 07:41 am Feb 19 4:41 am
483.20 02/19/2018 12:26:40 Feb 19 07:26 am Feb 19 4:26 am
483.20 02/19/2018 11:41:52 Feb 19 06:41 am Feb 19 3:41 am
478.20 02/19/2018 11:26:56 Feb 19 06:26 am Feb 19 3:26 am
478.20 02/19/2018 10:42:08 Feb 19 05:42 am Feb 19 2:42 am
483.20 02/19/2018 10:27:12 Feb 19 05:27 am Feb 19 2:27 am
483.20 02/19/2018 09:42:24 Feb 19 04:42 am Feb 19 1:42 am
483.20 02/19/2018 09:27:28 Feb 19 04:27 am Feb 19 1:27 am
483.20 02/19/2018 08:42:40 Feb 19 03:42 am Feb 19 12:42 am
483.20 02/19/2018 08:27:44 Feb 19 03:27 am Feb 19 12:27 am
488.20 02/19/2018 07:40:48 Feb 19 02:40 am Feb 18 11:40 pm
487.50 02/19/2018 07:25:52 Feb 19 02:25 am Feb 18 11:25 pm
487.50 02/19/2018 06:41:04 Feb 19 01:41 am Feb 18 10:41 pm
482.50 02/19/2018 06:26:08 Feb 19 01:26 am Feb 18 10:26 pm
482.50 02/19/2018 05:41:20 Feb 19 12:41 am Feb 18 9:41 pm
482.50 02/19/2018 05:26:24 Feb 19 12:26 am Feb 18 9:26 pm
482.50 02/19/2018 04:41:36 Feb 18 11:41 pm Feb 18 8:41 pm
476.70 02/19/2018 04:26:40 Feb 18 11:26 pm Feb 18 8:26 pm
476.70 02/19/2018 03:41:52 Feb 18 10:41 pm Feb 18 7:41 pm
477.50 02/19/2018 03:26:56 Feb 18 10:26 pm Feb 18 7:26 pm
477.50 02/19/2018 02:42:08 Feb 18 09:42 pm Feb 18 6:42 pm
482.50 02/19/2018 02:27:12 Feb 18 09:27 pm Feb 18 6:27 pm
482.50 02/19/2018 01:42:24 Feb 18 08:42 pm Feb 18 5:42 pm
482.50 02/19/2018 01:27:28 Feb 18 08:27 pm Feb 18 5:27 pm
482.50 02/19/2018 00:42:40 Feb 18 07:42 pm Feb 18 4:42 pm
482.50 02/19/2018 00:27:44 Feb 18 07:27 pm Feb 18 4:27 pm
477.50 02/18/2018 23:40:48 Feb 18 06:40 pm Feb 18 3:40 pm
482.50 02/18/2018 23:25:52 Feb 18 06:25 pm Feb 18 3:25 pm
482.50 02/18/2018 22:41:04 Feb 18 05:41 pm Feb 18 2:41 pm
477.50 02/18/2018 22:26:08 Feb 18 05:26 pm Feb 18 2:26 pm
477.50 02/18/2018 21:41:20 Feb 18 04:41 pm Feb 18 1:41 pm
482.50 02/18/2018 21:26:24 Feb 18 04:26 pm Feb 18 1:26 pm
482.50 02/18/2018 20:41:36 Feb 18 03:41 pm Feb 18 12:41 pm
487.50 02/18/2018 20:26:40 Feb 18 03:26 pm Feb 18 12:26 pm
487.50 02/18/2018 19:41:52 Feb 18 02:41 pm Feb 18 11:41 am
477.50 02/18/2018 19:26:56 Feb 18 02:26 pm Feb 18 11:26 am
477.50 02/18/2018 18:42:08 Feb 18 01:42 pm Feb 18 10:42 am
477.50 02/18/2018 18:27:12 Feb 18 01:27 pm Feb 18 10:27 am
477.50 02/18/2018 17:42:24 Feb 18 12:42 pm Feb 18 9:42 am
477.50 02/18/2018 17:27:28 Feb 18 12:27 pm Feb 18 9:27 am
477.50 02/18/2018 16:42:40 Feb 18 11:42 am Feb 18 8:42 am
477.50 02/18/2018 16:27:44 Feb 18 11:27 am Feb 18 8:27 am
482.50 02/18/2018 15:40:48 Feb 18 10:40 am Feb 18 7:40 am
477.50 02/18/2018 15:25:52 Feb 18 10:25 am Feb 18 7:25 am
477.50 02/18/2018 14:41:04 Feb 18 09:41 am Feb 18 6:41 am
477.50 02/18/2018 14:26:08 Feb 18 09:26 am Feb 18 6:26 am
477.50 02/18/2018 13:41:20 Feb 18 08:41 am Feb 18 5:41 am
472.50 02/18/2018 13:26:24 Feb 18 08:26 am Feb 18 5:26 am
472.50 02/18/2018 12:41:36 Feb 18 07:41 am Feb 18 4:41 am
482.50 02/18/2018 12:26:40 Feb 18 07:26 am Feb 18 4:26 am
482.50 02/18/2018 11:41:52 Feb 18 06:41 am Feb 18 3:41 am
467.50 02/18/2018 11:26:56 Feb 18 06:26 am Feb 18 3:26 am
467.50 02/18/2018 10:42:08 Feb 18 05:42 am Feb 18 2:42 am
482.50 02/18/2018 10:27:12 Feb 18 05:27 am Feb 18 2:27 am
482.50 02/18/2018 09:42:24 Feb 18 04:42 am Feb 18 1:42 am
472.50 02/18/2018 09:27:28 Feb 18 04:27 am Feb 18 1:27 am
472.50 02/18/2018 08:42:40 Feb 18 03:42 am Feb 18 12:42 am
472.50 02/18/2018 08:27:44 Feb 18 03:27 am Feb 18 12:27 am
467.50 02/18/2018 07:40:48 Feb 18 02:40 am Feb 17 11:40 pm
477.50 02/18/2018 07:25:52 Feb 18 02:25 am Feb 17 11:25 pm
477.50 02/18/2018 06:41:04 Feb 18 01:41 am Feb 17 10:41 pm
477.50 02/18/2018 06:26:08 Feb 18 01:26 am Feb 17 10:26 pm
477.50 02/18/2018 05:41:20 Feb 18 12:41 am Feb 17 9:41 pm
477.50 02/18/2018 05:26:24 Feb 18 12:26 am Feb 17 9:26 pm
477.50 02/18/2018 04:41:36 Feb 17 11:41 pm Feb 17 8:41 pm
444.50 02/18/2018 04:26:40 Feb 17 11:26 pm Feb 17 8:26 pm
444.50 02/18/2018 03:41:52 Feb 17 10:41 pm Feb 17 7:41 pm
440.50 02/18/2018 03:26:56 Feb 17 10:26 pm Feb 17 7:26 pm
440.50 02/18/2018 02:42:08 Feb 17 09:42 pm Feb 17 6:42 pm
477.50 02/18/2018 02:27:12 Feb 17 09:27 pm Feb 17 6:27 pm
477.50 02/18/2018 01:42:24 Feb 17 08:42 pm Feb 17 5:42 pm
472.50 02/18/2018 01:27:28 Feb 17 08:27 pm Feb 17 5:27 pm
472.50 02/18/2018 00:42:40 Feb 17 07:42 pm Feb 17 4:42 pm
472.50 02/18/2018 00:27:44 Feb 17 07:27 pm Feb 17 4:27 pm
472.50 02/17/2018 23:40:48 Feb 17 06:40 pm Feb 17 3:40 pm
477.50 02/17/2018 23:25:52 Feb 17 06:25 pm Feb 17 3:25 pm
477.50 02/17/2018 22:41:04 Feb 17 05:41 pm Feb 17 2:41 pm
472.50 02/17/2018 22:26:08 Feb 17 05:26 pm Feb 17 2:26 pm
472.50 02/17/2018 21:41:20 Feb 17 04:41 pm Feb 17 1:41 pm
472.50 02/17/2018 21:26:24 Feb 17 04:26 pm Feb 17 1:26 pm
472.50 02/17/2018 20:41:36 Feb 17 03:41 pm Feb 17 12:41 pm
467.50 02/17/2018 20:26:40 Feb 17 03:26 pm Feb 17 12:26 pm
467.50 02/17/2018 19:41:52 Feb 17 02:41 pm Feb 17 11:41 am
384.50 02/17/2018 19:26:56 Feb 17 02:26 pm Feb 17 11:26 am
384.50 02/17/2018 18:42:08 Feb 17 01:42 pm Feb 17 10:42 am
388.50 02/17/2018 18:27:12 Feb 17 01:27 pm Feb 17 10:27 am
388.50 02/17/2018 17:42:24 Feb 17 12:42 pm Feb 17 9:42 am
379.50 02/17/2018 17:27:28 Feb 17 12:27 pm Feb 17 9:27 am
379.50 02/17/2018 16:42:40 Feb 17 11:42 am Feb 17 8:42 am
379.50 02/17/2018 16:27:44 Feb 17 11:27 am Feb 17 8:27 am
341.50 02/17/2018 15:40:48 Feb 17 10:40 am Feb 17 7:40 am
341.50 02/17/2018 15:25:52 Feb 17 10:25 am Feb 17 7:25 am
279.50 02/17/2018 14:41:04 Feb 17 09:41 am Feb 17 6:41 am
246.50 02/17/2018 14:26:08 Feb 17 09:26 am Feb 17 6:26 am
246.50 02/17/2018 13:41:20 Feb 17 08:41 am Feb 17 5:41 am
203.50 02/17/2018 13:26:24 Feb 17 08:26 am Feb 17 5:26 am
203.50 02/17/2018 12:41:36 Feb 17 07:41 am Feb 17 4:41 am
154.50 02/17/2018 12:26:40 Feb 17 07:26 am Feb 17 4:26 am
154.50 02/17/2018 11:41:52 Feb 17 06:41 am Feb 17 3:41 am
110.00 02/17/2018 11:26:56 Feb 17 06:26 am Feb 17 3:26 am
110.00 02/17/2018 10:42:08 Feb 17 05:42 am Feb 17 2:42 am
78.10 02/17/2018 10:27:12 Feb 17 05:27 am Feb 17 2:27 am
78.10 02/17/2018 09:42:24 Feb 17 04:42 am Feb 17 1:42 am
78.10 02/17/2018 09:27:28 Feb 17 04:27 am Feb 17 1:27 am
78.10 02/17/2018 08:42:40 Feb 17 03:42 am Feb 17 12:42 am
78.10 02/17/2018 08:27:44 Feb 17 03:27 am Feb 17 12:27 am
78.10 02/17/2018 07:40:48 Feb 17 02:40 am Feb 16 11:40 pm
77.00 02/17/2018 07:25:52 Feb 17 02:25 am Feb 16 11:25 pm
77.00 02/17/2018 06:41:04 Feb 17 01:41 am Feb 16 10:41 pm
78.10 02/17/2018 06:26:08 Feb 17 01:26 am Feb 16 10:26 pm
78.10 02/17/2018 05:41:20 Feb 17 12:41 am Feb 16 9:41 pm
78.10 02/17/2018 05:26:24 Feb 17 12:26 am Feb 16 9:26 pm
78.10 02/17/2018 04:41:36 Feb 16 11:41 pm Feb 16 8:41 pm
77.70 02/17/2018 04:26:40 Feb 16 11:26 pm Feb 16 8:26 pm
77.70 02/17/2018 03:41:52 Feb 16 10:41 pm Feb 16 7:41 pm
90.80 02/17/2018 03:26:56 Feb 16 10:26 pm Feb 16 7:26 pm
90.80 02/17/2018 02:42:08 Feb 16 09:42 pm Feb 16 6:42 pm
89.70 02/17/2018 02:27:12 Feb 16 09:27 pm Feb 16 6:27 pm
89.70 02/17/2018 01:42:24 Feb 16 08:42 pm Feb 16 5:42 pm
92.90 02/17/2018 01:27:28 Feb 16 08:27 pm Feb 16 5:27 pm
92.90 02/17/2018 00:42:40 Feb 16 07:42 pm Feb 16 4:42 pm
92.90 02/17/2018 00:27:44 Feb 16 07:27 pm Feb 16 4:27 pm
89.70 02/16/2018 23:40:48 Feb 16 06:40 pm Feb 16 3:40 pm
90.80 02/16/2018 23:25:52 Feb 16 06:25 pm Feb 16 3:25 pm
90.80 02/16/2018 22:41:04 Feb 16 05:41 pm Feb 16 2:41 pm
90.80 02/16/2018 22:26:08 Feb 16 05:26 pm Feb 16 2:26 pm
90.80 02/16/2018 21:41:20 Feb 16 04:41 pm Feb 16 1:41 pm
91.80 02/16/2018 21:26:24 Feb 16 04:26 pm Feb 16 1:26 pm
91.80 02/16/2018 20:41:36 Feb 16 03:41 pm Feb 16 12:41 pm
90.80 02/16/2018 20:26:40 Feb 16 03:26 pm Feb 16 12:26 pm
90.80 02/16/2018 19:41:52 Feb 16 02:41 pm Feb 16 11:41 am
91.80 02/16/2018 19:26:56 Feb 16 02:26 pm Feb 16 11:26 am
91.80 02/16/2018 18:42:08 Feb 16 01:42 pm Feb 16 10:42 am
90.80 02/16/2018 18:27:12 Feb 16 01:27 pm Feb 16 10:27 am
90.80 02/16/2018 17:42:24 Feb 16 12:42 pm Feb 16 9:42 am
91.80 02/16/2018 17:27:28 Feb 16 12:27 pm Feb 16 9:27 am
91.80 02/16/2018 16:42:40 Feb 16 11:42 am Feb 16 8:42 am
91.80 02/16/2018 16:27:44 Feb 16 11:27 am Feb 16 8:27 am
90.80 02/16/2018 15:40:48 Feb 16 10:40 am Feb 16 7:40 am
91.80 02/16/2018 15:25:52 Feb 16 10:25 am Feb 16 7:25 am
91.80 02/16/2018 14:41:04 Feb 16 09:41 am Feb 16 6:41 am
90.80 02/16/2018 14:26:08 Feb 16 09:26 am Feb 16 6:26 am
90.80 02/16/2018 13:41:20 Feb 16 08:41 am Feb 16 5:41 am
90.80 02/16/2018 13:26:24 Feb 16 08:26 am Feb 16 5:26 am
90.80 02/16/2018 12:41:36 Feb 16 07:41 am Feb 16 4:41 am
91.80 02/16/2018 12:26:40 Feb 16 07:26 am Feb 16 4:26 am
91.80 02/16/2018 11:41:52 Feb 16 06:41 am Feb 16 3:41 am
90.80 02/16/2018 11:26:56 Feb 16 06:26 am Feb 16 3:26 am
90.80 02/16/2018 10:42:08 Feb 16 05:42 am Feb 16 2:42 am
91.80 02/16/2018 10:27:12 Feb 16 05:27 am Feb 16 2:27 am
91.80 02/16/2018 09:42:24 Feb 16 04:42 am Feb 16 1:42 am
91.80 02/16/2018 09:27:28 Feb 16 04:27 am Feb 16 1:27 am
91.80 02/16/2018 08:42:40 Feb 16 03:42 am Feb 16 12:42 am
91.80 02/16/2018 08:27:44 Feb 16 03:27 am Feb 16 12:27 am
91.80 02/16/2018 07:40:48 Feb 16 02:40 am Feb 15 11:40 pm
90.80 02/16/2018 07:25:52 Feb 16 02:25 am Feb 15 11:25 pm
90.80 02/16/2018 06:41:04 Feb 16 01:41 am Feb 15 10:41 pm
90.80 02/16/2018 06:26:08 Feb 16 01:26 am Feb 15 10:26 pm
90.80 02/16/2018 05:41:20 Feb 16 12:41 am Feb 15 9:41 pm
91.80 02/16/2018 05:26:24 Feb 16 12:26 am Feb 15 9:26 pm
91.80 02/16/2018 04:41:36 Feb 15 11:41 pm Feb 15 8:41 pm
90.80 02/16/2018 04:26:40 Feb 15 11:26 pm Feb 15 8:26 pm
90.80 02/16/2018 03:41:52 Feb 15 10:41 pm Feb 15 7:41 pm
90.80 02/16/2018 03:26:56 Feb 15 10:26 pm Feb 15 7:26 pm
90.80 02/16/2018 02:42:08 Feb 15 09:42 pm Feb 15 6:42 pm
90.80 02/16/2018 02:27:12 Feb 15 09:27 pm Feb 15 6:27 pm
90.80 02/16/2018 01:42:24 Feb 15 08:42 pm Feb 15 5:42 pm
90.80 02/16/2018 01:27:28 Feb 15 08:27 pm Feb 15 5:27 pm
90.80 02/16/2018 00:42:40 Feb 15 07:42 pm Feb 15 4:42 pm
90.80 02/16/2018 00:27:44 Feb 15 07:27 pm Feb 15 4:27 pm
89.70 02/15/2018 23:40:48 Feb 15 06:40 pm Feb 15 3:40 pm
66.00 02/15/2018 23:25:52 Feb 15 06:25 pm Feb 15 3:25 pm
66.00 02/15/2018 22:41:04 Feb 15 05:41 pm Feb 15 2:41 pm
61.70 02/15/2018 22:26:08 Feb 15 05:26 pm Feb 15 2:26 pm
61.70 02/15/2018 21:41:20 Feb 15 04:41 pm Feb 15 1:41 pm
61.10 02/15/2018 21:26:24 Feb 15 04:26 pm Feb 15 1:26 pm
61.10 02/15/2018 20:41:36 Feb 15 03:41 pm Feb 15 12:41 pm
60.50 02/15/2018 20:26:40 Feb 15 03:26 pm Feb 15 12:26 pm
60.50 02/15/2018 19:41:52 Feb 15 02:41 pm Feb 15 11:41 am
60.00 02/15/2018 19:26:56 Feb 15 02:26 pm Feb 15 11:26 am
60.00 02/15/2018 18:42:08 Feb 15 01:42 pm Feb 15 10:42 am
60.50 02/15/2018 18:27:12 Feb 15 01:27 pm Feb 15 10:27 am
60.50 02/15/2018 17:42:24 Feb 15 12:42 pm Feb 15 9:42 am
80.90 02/15/2018 17:27:28 Feb 15 12:27 pm Feb 15 9:27 am
80.90 02/15/2018 16:42:40 Feb 15 11:42 am Feb 15 8:42 am
80.90 02/15/2018 16:27:44 Feb 15 11:27 am Feb 15 8:27 am
80.00 02/15/2018 15:40:48 Feb 15 10:40 am Feb 15 7:40 am
80.00 02/15/2018 15:25:52 Feb 15 10:25 am Feb 15 7:25 am
80.00 02/15/2018 14:41:04 Feb 15 09:41 am Feb 15 6:41 am
79.10 02/15/2018 14:26:08 Feb 15 09:26 am Feb 15 6:26 am
79.10 02/15/2018 13:41:20 Feb 15 08:41 am Feb 15 5:41 am
79.10 02/15/2018 13:26:24 Feb 15 08:26 am Feb 15 5:26 am
79.10 02/15/2018 12:41:36 Feb 15 07:41 am Feb 15 4:41 am
78.20 02/15/2018 12:26:40 Feb 15 07:26 am Feb 15 4:26 am
78.20 02/15/2018 11:41:52 Feb 15 06:41 am Feb 15 3:41 am
78.20 02/15/2018 11:26:56 Feb 15 06:26 am Feb 15 3:26 am
78.20 02/15/2018 10:42:08 Feb 15 05:42 am Feb 15 2:42 am
77.40 02/15/2018 10:27:12 Feb 15 05:27 am Feb 15 2:27 am
77.40 02/15/2018 09:42:24 Feb 15 04:42 am Feb 15 1:42 am
76.50 02/15/2018 09:27:28 Feb 15 04:27 am Feb 15 1:27 am
76.50 02/15/2018 08:42:40 Feb 15 03:42 am Feb 15 12:42 am
76.50 02/15/2018 08:27:44 Feb 15 03:27 am Feb 15 12:27 am
76.50 02/15/2018 07:40:48 Feb 15 02:40 am Feb 14 11:40 pm
75.70 02/15/2018 07:25:52 Feb 15 02:25 am Feb 14 11:25 pm
75.70 02/15/2018 06:41:04 Feb 15 01:41 am Feb 14 10:41 pm
74.90 02/15/2018 06:26:08 Feb 15 01:26 am Feb 14 10:26 pm
74.90 02/15/2018 05:41:20 Feb 15 12:41 am Feb 14 9:41 pm
74.00 02/15/2018 05:26:24 Feb 15 12:26 am Feb 14 9:26 pm
74.00 02/15/2018 04:41:36 Feb 14 11:41 pm Feb 14 8:41 pm
74.00 02/15/2018 04:26:40 Feb 14 11:26 pm Feb 14 8:26 pm
74.00 02/15/2018 03:41:52 Feb 14 10:41 pm Feb 14 7:41 pm
72.50 02/15/2018 03:26:56 Feb 14 10:26 pm Feb 14 7:26 pm
72.50 02/15/2018 02:42:08 Feb 14 09:42 pm Feb 14 6:42 pm
71.70 02/15/2018 02:27:12 Feb 14 09:27 pm Feb 14 6:27 pm
71.70 02/15/2018 01:42:24 Feb 14 08:42 pm Feb 14 5:42 pm
70.20 02/15/2018 01:27:28 Feb 14 08:27 pm Feb 14 5:27 pm
70.20 02/15/2018 00:42:40 Feb 14 07:42 pm Feb 14 4:42 pm
70.20 02/15/2018 00:27:44 Feb 14 07:27 pm Feb 14 4:27 pm
69.50 02/14/2018 23:40:48 Feb 14 06:40 pm Feb 14 3:40 pm
81.80 02/14/2018 23:25:52 Feb 14 06:25 pm Feb 14 3:25 pm

Report - Reports of Related Gauges

Reports give the public a chance to report on river conditions throughout the country as well as log the history of a river.

Reports

When River/Gauge Subject Level Reporter
4y199d12h37m /Tuolumne River Below Confluence with Cherry Creek [CA] Raft in center route at Stern's 1200 cfs Paul Martzen

Linked Reaches

Click a heading to sort. Hover over a heading for help.
River Name/Section Class Level running? Updated
Tuolumne [CA] 3) Cherry Creek to Meral's Pool IV-V+ 482 cfs
-40 cfs/hr
L8-
Below Recom.
00h56m
Tuolumne [CA] 4) Lumsden Campground (Merals Pool) to Wards Ferry Bridge IV 482 cfs
-40 cfs/hr
L9-
Below Recom.
00h56m

Associated Gauges

Disclaimer Data Sources

CHERRY C BL DION R HOLM PH NR MATHER CA (AW#4655)

24 cfs 00h54m

CHERRY C BL DION R HOLM PH NR MATHER CA (AW#4655)

5.94 ft 00h54m

TUOLUMNE R BL EARLY INTAKE NR MATHER CA (AW#4651)

458 cfs 01h09m

TUOLUMNE R BL EARLY INTAKE NR MATHER CA (AW#4651)

4.82 ft 01h09m